リニア彗星

C/2003 T4 ( LINEAR )

English version
Home page
Total 6,336 html files since Dec. 4, 1995
Updated on April 23, 2006

---------------------------------------------------------------------

・ プロフィール

発見日 2003年10月13日
発見光度 19.7等
発見者 Lincoln Laboratory Near-Earth Asteroid Research project

・ 写真集

・ 軌道要素

Epoch 2005 Apr. 20.0 TT = JDT 2453480.5
T 2005 Apr. 3.64857 TT                                  Nakano
q   0.8498667            (2000.0)            P               Q
z  -0.0000003      Peri.  181.64797     +0.06967368     +0.05437946
 +/-0.0000087      Node    93.90377     -0.90345198     +0.42682916
e   1.0000003      Incl.   86.76154     -0.42298947     -0.90269582
>From 829 observations 2003 Oct. 13-2005 Mar. 31, mean residual 0".62.
   Nongravitational parameters Y1 = +8.83 +/- 0.06, Y2 = -0.34 +/- 0.03.

・ 星図

・ 光度変化

        m1 = 8.0 + 5 logΔ +  7.0 log r  [   ,-30]  (              〜2005年 3月 4日)
        m1 = 8.0 + 5 logΔ + 10.0 log r  [-30,   ]  (2005年 3月 4日〜              )

---------------------------------------------------------------------

軌道要素はM.P.E.C. 2005-G28に掲載されたものです。
星図は StellaNavigator Ver.2.0 for Windows (アストロアーツ 編著 / アスキー出版局刊) で作成したものです。
光度グラフはComet for Windowsで作成したものです。

---------------------------------------------------------------------

Copyright(C) 1995-2008 Seiichi Yoshida (comet@aerith.net). All rights reserved.